FENGYUN 1C DEB

Satellite information

Favourite Embed

Satellite Type and Status

DEBRISIN ORBIT

Key statistics

Satellite FENGYUN 1C DEB at a glance.

Uptime

9495

Days in orbit

Revolutions

≈ 14.4

Per day

Orbit

SSO

Sun Synchronous Orbit

Inclination

99.0

Latest

Satellite identification and parameters

Extended collection of information and parameters for FENGYUN 1C DEB.

Object identification

Identified? True

Debris? True

Object name: FENGYUN 1C DEB

International designator: 1999-025MA

Object number (NORAD): 30001

Object ID (CCSDS): 30001

Country: PEOPLES REPUBLIC OF CHINA (PRC)

Current information (Y/N): Y

RCS size: SMALL

Orbital parameters

Period: 100.345 minutes

Inclination: 98.9629 deg

SMA: 7153.026 km

Apoapsis: 802.258 km

Periapsis: 747.523 km

RAAN: 194.1631 deg

Eccentricy: 0.003826

Argument of periapsis: 21.4148 deg

Mean anomaly: 158.8815 deg

Mean motion: 14.35053522 rev/day

Mean motion (dot): 0.00005994 rev/day2

B* drag term: 0.0020999 1/REarth

Two-line elements (TLE)

Creation date: May 8, 2025, 3:01 a.m.

Reference frame: TEME

Reference center: EARTH

Epoch: May 7, 2025, 10:36 p.m. UTC

TLE line 0: 0 FENGYUN 1C DEB

TLE line 1: 1 30001U 99025MA 25127.94190440 .00005994 00000-0 20999-2 0 9995

TLE line 2: 2 30001 98.9629 194.1631 0038260 21.4148 158.8815 14.35053522942903

Live tracking on map

Real-time ground track for satellite FENGYUN 1C DEB.

In-orbit conjunctions

A list of the most updated potential collisions computed for object FENGYUN 1C DEB.

Target Orbit TCA Probability of collision Miss distance Type
COSMOS 2251 DEB LEO 2025-03-28 18:20:55 0.0002397983 227.0 (m) DEBRIS
CZ-4C R/B SSO 2025-01-03 09:15:08 0.0001745085 339.0 (m) ROCKET BODY
COSMOS 372 LEO 2024-11-07 23:59:02 0.0001020956 122.0 (m) PAYLOAD

Associated space launch

Chinese polar orbiting meteorological satellite

FENGYUN 1C DEB was lifted into orbit during the mission ‘Long March 4B | Feng Yun 1C’, on board a Long March 4B space rocket.

The launch took place on May 10, 1999, 1:33 a.m. from Launch Complex 7.

For more information about the launch, click the button.

Launch to space Long March 4B | Feng Yun 1C
Long March 4B | Feng Yun 1C

Agency: N/A

Status: Launch Successful

Launch date: May 10, 1999, 1:33 a.m. UTC

Rocket: Long March 4B

Launch pad: Launch Complex 7

Location: Taiyuan Satellite Launch Center, People's Republic of China

...

Latest news about this satellite

There are no fresh news available about this satellite. Check back as we update our databases every day.


Newsletter sign-up

Weekly statistics, charts and insights to help you stay on top of the space industry.